Location: Berg
(47.2344°N, 9.5296°E)
Time: 21:46:55
(UTC+00:00)

CZ-2C R/B - Pass Details

Date: 24 January 2021
Orbit: 704 x 908 km, 98.1° (Epoch: 03 March)

Event Time Altitude Azimuth Distance (km) Brightness Sun altitude
Rises 18:07:27 0° 181° (S) 3,307 6.4 -19.4°
Reaches altitude 10° 18:09:48 10° 186° (S) 2,411 5.7 -19.8°
Maximum altitude 18:15:01 51° 262° (W) 1,071 4.1 -20.7°
Drops below altitude 10° 18:20:32 10° 337° (NNW) 2,548 5.9 -21.6°
Sets 18:23:04 0° 343° (NNW) 3,512 6.6 -22.0°
